Vertical_Velocity
-19 -5 3 13 10 -2 -8 4 7 4 1 3 2 6 22 3 1 -1 17 -11 16 6
9 -9 -9 -2 13 20 -9 0 7 0 0 3 4 -1 -5 5 16 -2 10 7 7 6
-2 4 10 -10 5 5 5 -0 -0 2 -1 -3 2 2 2 -10 22 -11 2 10 -7 -8
2 -3 -1 -1 -4 -6 3 7 3 7 0 1 -2 0 2 0 -6 6 -6 4 7 4
-1 3 -3 1 -1 -9 -5 0 -5 -11 13 11 -2 1 -2 -7 3 20 -19 -1 -6 -2
-3 -2 -1 -3 4 1 -4 -3 -5 -7 18 -5 0 -1 -0 7 5 11 1 2 1 2
-3 -4 -5 -2 3 2 -1 -0 5 2 2 6 5 6 5 -0 4 2 5 4 4 1
-1 0 -5 -1 0 -1 2 0 0 10 8 10 6 1 4 2 2 2 3 2 2 5
5 -2 1 1 -3 -1 2 -2 -0 2 12 11 9 13 2 0 6 5 3 4 0 3
-4 -5 -2 0 -4 -3 -0 4 -2 2 2 6 6 -4 7 -2 2 -3 3 4 -1 -5
-7 1 1 3 -1 2 -0 -2 2 -2 -1 6 8 1 2 9 11 2 1 1 3 1
3 8 6 -0 -6 -1 -1 -3 -1 3 5 0 7 4 -3 2 13 10 -2 3 6 7
-1 7 -0 5 16 7 -4 -1 -0 2 1 4 4 7 3 6 4 5 10 -1 3 4
5 4 7 -4 -4 1 -2 -0 2 2 7 5 7 2 4 1 5 6 3 8 6 6
Height
2976 2981 2984 2989 2996 3005 3010 3020 3026 3031 3036 3041 3046 3050 3055 3060 3064 3068 3071 3077 3077 3082
2961 2967 2975 2981 2987 2994 3004 3010 3017 3023 3028 3034 3039 3043 3047 3052 3056 3064 3067 3070 3073 3078
2953 2957 2962 2971 2978 2983 2991 3001 3007 3013 3020 3025 3031 3036 3040 3043 3048 3054 3057 3064 3068 3074
2944 2949 2954 2959 2967 2973 2981 2989 2998 3004 3010 3017 3022 3028 3033 3038 3043 3047 3053 3056 3061 3066
2934 2938 2944 2950 2956 2962 2971 2977 2986 2993 2998 3006 3014 3020 3025 3031 3037 3040 3047 3051 3054 3061
2926 2928 2933 2940 2947 2951 2958 2967 2974 2981 2987 2996 3004 3012 3018 3025 3031 3037 3041 3046 3051 3058
2920 2921 2924 2929 2935 2942 2948 2956 2962 2970 2976 2984 2990 3001 3008 3015 3021 3028 3034 3040 3046 3052
2915 2915 2916 2920 2924 2931 2937 2945 2950 2956 2961 2968 2978 2984 2996 3004 3012 3018 3026 3032 3037 3043
2909 2910 2910 2912 2915 2920 2926 2934 2940 2945 2951 2958 2965 2975 2982 2990 3001 3008 3015 3022 3028 3034
2906 2908 2908 2908 2908 2912 2916 2922 2928 2935 2941 2947 2955 2962 2969 2977 2986 2995 3003 3010 3016 3022
2907 2908 2907 2905 2905 2906 2909 2913 2917 2924 2931 2937 2944 2949 2955 2964 2973 2979 2990 2997 3004 3011
2909 2907 2905 2902 2901 2902 2903 2906 2910 2914 2918 2926 2932 2937 2943 2952 2961 2968 2975 2984 2992 3000
2903 2900 2899 2901 2899 2898 2901 2904 2906 2908 2911 2915 2920 2925 2931 2938 2946 2956 2966 2973 2979 2987
2902 2900 2899 2898 2901 2902 2904 2905 2906 2907 2908 2909 2913 2917 2922 2928 2935 2944 2953 2962 2970 2977